Tracking 29019 objects as of 13-Jun-2024
HD Live streaming from Space Station
objects crossing your sky now

STARLINK-6343

Track STARLINK-6343 now!
10-day predictions
STARLINK-6343 is classified as:


NORAD ID: 57362
Int'l Code: 2023-099AL
Perigee: 565.4 km
Apogee: 567.0 km
Inclination: 43.0 °
Period: 95.8 minutes
Semi major axis: 6937 km
RCS: Unknown
Launch date: July 16, 2023
Source: United States (US)
Launch site: AIR FORCE EASTERN TEST RANGE (AFETR)
Your satellite tracking list
Your tracking list is empty




NASA's NSSDC Master Catalog

Two Line Element Set (TLE):
1 57362U 23099AL  24164.87927861  .00000184  00000-0  28673-4 0  9994
2 57362  43.0031  85.4076 0001151 266.5192  93.5519 15.02532156 50776
Source of the keplerian elements: AFSPC